VK4TW-13 Weather Reports


Display with metric or nautical units.
time (UTC)temp
F
wind
direction
speed
MPH
gust
MPH
rain 1hr
in
rain 24hr
in
rain mn
in
humidity
%
barometer
mb
20260504234116 80 112 1.0 11.0 0.00 0.00 0.00 100 1015.9
20260504233816 80 70 7.0 11.0 0.00 0.00 0.00 100 1016.1
20260504233407 79 67 1.0 4.0 0.00 0.00 0.00 100 1016.2
20260504232046 78 67 6.0 7.0 0.00 0.00 0.00 100 1016.4
20260504231744 78 112 1.0 10.0 0.00 0.00 0.00 100 1016.4
20260504230944 78 75 6.0 8.0 0.00 0.00 0.00 100 1016.3
20260504230620 77 112 1.0 5.0 0.00 0.00 0.00 100 1016.3
20260504225711 77 110 1.0 9.0 0.00 0.00 0.00 100 1016.1
20260504225036 77 77 6.0 6.0 0.00 0.00 0.00 100 1016.3
20260504224508 76 112 0.0 10.0 0.00 0.00 0.00 100 1016.3
20260504224005 76 85 6.0 6.0 0.00 0.00 0.00 100 1016.3
20260504223648 76 103 0.0 11.0 0.00 0.00 0.00 100 1016.2
20260504223348 76 84 8.0 9.0 0.00 0.00 0.00 100 1016.3
20260504222735 75 72 3.0 5.0 0.00 0.00 0.00 100 1016.3
20260504221735 75 95 2.0 8.0 0.00 0.00 0.00 100 1016.1
20260504221432 75 71 7.0 7.0 0.00 0.00 0.00 100 1016.3
20260504221051 75 100 2.0 9.0 0.00 0.00 0.00 100 1016.2
20260504220626 75 85 7.0 7.0 0.00 0.00 0.00 100 1016.2
20260504220125 75 105 2.0 7.0 0.00 0.00 0.00 100 1016.1
20260504215724 75 82 7.0 7.0 0.00 0.00 0.00 100 1016.1
20260504214831 74 106 2.0 3.0 0.00 0.00 0.00 100 1015.9
20260504213829 73 105 0.0 2.0 0.00 0.00 0.00 100 1016.1
20260504212829 72 68 2.0 2.0 0.00 0.00 0.00 100 1015.9
20260504211826 71 88 2.0 2.0 0.00 0.00 0.00 100 1015.7
20260504210825 70 69 2.0 2.0 0.00 0.00 0.00 100 1015.8
20260504205825 69 67 2.0 2.0 0.00 0.00 0.00 100 1015.6
20260504204824 69 90 1.0 1.0 0.00 0.00 0.00 100 1015.5
20260504203822 69 78 0.0 2.0 0.00 0.00 0.00 100 1015.5
20260504202823 68 69 2.0 2.0 0.00 0.00 0.00 100 1015.3
20260504201821 68 97 0.0 2.0 0.00 0.00 0.00 100 1015.2
20260504200824 68 68 0.0 0.0 0.00 0.00 0.00 100 1015.3
20260504194818 68 112 0.0 1.0 0.00 0.00 0.00 100 1015.2
20260504193816 67 111 0.0 0.0 0.00 0.00 0.00 100 1015.1
20260504191822 67 71 0.0 1.0 0.00 0.00 0.00 100 1014.8
20260504185813 68 112 0.0 0.0 0.00 0.00 0.00 100 1014.6
20260504184812 68 67 0.0 0.0 0.00 0.00 0.00 100 1014.6
20260504183817 68 68 0.0 0.0 0.00 0.00 0.00 100 1014.5
20260504180808 69 97 0.0 0.0 0.00 0.00 0.00 100 1014.7
20260504175809 69 94 0.0 1.0 0.00 0.00 0.00 100 1014.6
20260504174807 69 112 0.0 2.0 0.00 0.00 0.00 100 1014.7
20260504173807 69 112 0.0 0.0 0.00 0.00 0.00 100 1014.7
20260504172806 69 74 0.0 1.0 0.00 0.00 0.00 100 1014.7
20260504140827 70 112 0.0 3.0 0.00 0.00 0.00 100 1015.6
20260504130812 70 112 1.0 1.0 0.00 0.00 0.00 100 1016.0
20260504081805 74 112 0.0 3.0 0.00 0.00 0.00 100 1014.8
20260504080805 75 112 0.0 1.0 0.00 0.00 0.00 100 1014.8
20260504050300 82 108 1.0 4.0 0.00 0.00 0.00 100 1013.5
20260504045304 83 112 2.0 5.0 0.00 0.00 0.00 100 1013.5
20260504044259 83 99 1.0 4.0 0.00 0.00 0.00 100 1013.6
20260504043301 84 106 0.0 4.0 0.00 0.00 0.00 100 1013.6
20260504042851 84 108 5.0 5.0 0.00 0.00 0.00 100 1013.5
20260504042353 84 112 0.0 2.0 0.00 0.00 0.00 100 1013.5
20260504041353 84 112 0.0 4.0 0.00 0.00 0.00 100 1013.6
20260504040351 85 109 0.0 5.0 0.00 0.00 0.00 100 1013.8
20260504035350 86 90 1.0 6.0 0.00 0.00 0.00 100 1013.7
20260504034353 86 112 2.0 4.0 0.00 0.00 0.00 100 1013.8
20260504033347 87 84 1.0 7.0 0.00 0.00 0.00 100 1013.9
20260504033049 87 106 6.0 6.0 0.00 0.00 0.00 100 1013.9
20260504032317 87 86 1.0 5.0 0.00 0.00 0.00 100 1014.0
20260504031941 87 112 6.0 6.0 0.00 0.00 0.00 100 1014.0
20260504031207 87 112 1.0 5.0 0.00 0.00 0.00 100 1014.1
20260504030839 87 106 6.0 6.0 0.00 0.00 0.00 100 1014.2
20260504030347 87 112 1.0 4.0 0.00 0.00 0.00 100 1014.3
20260504025345 87 112 2.0 6.0 0.00 0.00 0.00 100 1014.5
20260504024345 87 112 3.0 5.0 0.00 0.00 0.00 100 1014.7
20260504023345 86 112 2.0 6.0 0.00 0.00 0.00 100 1014.8
20260504022342 86 89 3.0 4.0 0.00 0.00 0.00 100 1015.0
20260504021342 86 105 0.0 3.0 0.00 0.00 0.00 100 1015.1
20260504020340 86 91 2.0 3.0 0.00 0.00 0.00 100 1015.1
20260504015341 85 103 0.0 5.0 0.00 0.00 0.00 100 1015.4
20260504014642 85 105 5.0 5.0 0.00 0.00 0.00 100 1015.4
20260504014113 85 112 0.0 5.0 0.00 0.00 0.00 100 1015.5
20260504013143 85 99 5.0 5.0 0.00 0.00 0.00 100 1015.7
20260504012522 84 112 0.0 4.0 0.00 0.00 0.00 100 1015.8
20260504011519 84 99 1.0 4.0 0.00 0.00 0.00 100 1016.0
20260504010520 83 111 5.0 5.0 0.00 0.00 0.00 100 1016.2
20260504005937 82 112 0.0 3.0 0.00 0.00 0.00 100 1016.3
20260504004933 82 85 1.0 3.0 0.00 0.00 0.00 100 1016.4
20260504003932 82 87 2.0 3.0 0.00 0.00 0.00 100 1016.5
20260504002931 82 109 2.0 4.0 0.00 0.00 0.00 100 1016.6
20260504001932 81 112 1.0 3.0 0.00 0.00 0.00 100 1016.7
20260504000929 81 112 0.0 4.0 0.00 0.00 0.00 100 1016.7
20260503235929 80 85 0.0 4.0 0.00 0.00 0.00 100 1016.7
20260503234927 79 94 1.0 7.0 0.00 0.00 0.00 100 1016.8